N5VKM Weather Reports


Display with metric or nautical units.
time (UTC)temp
F
wind
direction
speed
MPH
gust
MPH
rain 1hr
in
rain 24hr
in
rain mn
in
humidity
%
barometer
mb
20260505011033 76 336 0.0 0.0 0.00 0.00 0.00 68 1005.9
20260505010608 76 336 0.0 0.0 0.00 0.00 0.00 68 1005.9
20260505010050 76 334 0.0 0.0 0.00 0.00 0.00 68 1006.0
20260505005544 77 335 0.0 0.0 0.00 0.00 0.00 67 1005.9
20260505005050 77 334 0.0 0.0 0.00 0.00 0.00 66 1005.9
20260505004553 77 334 0.0 0.0 0.00 0.00 0.00 66 1005.9
20260505004056 77 333 0.0 0.0 0.00 0.00 0.00 65 1005.9
20260505003546 77 333 0.0 0.0 0.00 0.00 0.00 65 1006.0
20260505003040 78 335 0.0 0.0 0.00 0.00 0.00 64 1006.0
20260505002532 78 334 0.0 0.0 0.00 0.00 0.00 64 1006.1
20260505002044 78 336 0.0 0.0 0.00 0.00 0.00 63 1006.1
20260505001537 78 336 0.0 0.0 0.00 0.00 0.00 64 1006.1
20260505001051 78 333 0.0 0.0 0.00 0.00 0.00 63 1006.1
20260505000603 78 333 0.0 0.0 0.00 0.00 0.00 63 1006.1
20260505000056 78 336 0.0 0.0 0.00 0.00 0.00 63 1006.0
20260504235542 78 335 0.0 0.0 0.00 0.00 0.00 63 1005.9
20260504235035 78 333 0.0 0.0 0.00 0.00 0.00 63 1006.0
20260504234530 79 333 0.0 0.0 0.00 0.00 0.00 63 1006.1
20260504234103 79 334 0.0 0.0 0.00 0.00 0.00 63 1006.2
20260504233533 79 336 0.0 0.0 0.00 0.00 0.00 62 1006.3
20260504233040 79 335 0.0 0.0 0.00 0.00 0.00 62 1006.3
20260504232538 79 334 0.0 0.0 0.00 0.00 0.00 62 1006.3
20260504232031 79 334 0.0 0.0 0.00 0.00 0.00 62 1006.3
20260504231540 80 332 0.0 0.0 0.00 0.00 0.00 62 1006.5
20260504231054 80 333 0.0 0.0 0.00 0.00 0.00 61 1006.5
20260504230543 80 333 0.0 0.0 0.00 0.00 0.00 61 1006.5
20260504230032 80 333 0.0 0.0 0.00 0.00 0.00 60 1006.4
20260504225540 80 335 0.0 0.0 0.00 0.00 0.00 60 1006.7
20260504225031 80 334 0.0 0.0 0.00 0.00 0.00 60 1006.9
20260504224538 80 333 0.0 0.0 0.00 0.00 0.00 59 1006.8
20260504224033 81 333 0.0 0.0 0.00 0.00 0.00 59 1006.7
20260504223546 81 333 0.0 0.0 0.00 0.00 0.00 59 1006.6
20260504223038 81 335 0.0 0.0 0.00 0.00 0.00 59 1006.6
20260504222528 81 333 0.0 0.0 0.00 0.00 0.00 59 1006.6
20260504222102 81 333 0.0 0.0 0.00 0.00 0.00 60 1006.7
20260504221531 81 335 0.0 0.0 0.00 0.00 0.00 59 1006.8
20260504221039 81 335 0.0 0.0 0.00 0.00 0.00 59 1006.8
20260504220545 81 335 0.0 0.0 0.00 0.00 0.00 59 1006.9
20260504220037 81 333 0.0 0.0 0.00 0.00 0.00 59 1006.9
20260504215547 81 333 0.0 0.0 0.00 0.00 0.00 59 1006.9
20260504215037 81 335 0.0 0.0 0.00 0.00 0.00 57 1007.0
20260504214551 81 333 0.0 0.0 0.00 0.00 0.00 57 1007.3
20260504214038 81 334 0.0 0.0 0.00 0.00 0.00 56 1007.2
20260504213548 81 333 0.0 0.0 0.00 0.00 0.00 57 1007.2
20260504213036 81 336 0.0 0.0 0.00 0.00 0.00 57 1007.4
20260504212530 81 333 0.0 0.0 0.00 0.00 0.00 57 1007.5
20260504212044 81 334 0.0 0.0 0.00 0.00 0.00 57 1007.5
20260504211537 81 334 0.0 0.0 0.00 0.00 0.00 56 1007.6
20260504211050 81 333 0.0 0.0 0.00 0.00 0.00 56 1007.6
20260504210544 81 333 0.0 0.0 0.00 0.00 0.00 56 1007.8
20260504210037 81 333 0.0 0.0 0.00 0.00 0.00 55 1007.9
20260504205529 82 333 0.0 0.0 0.00 0.00 0.00 54 1008.0
20260504205041 82 334 0.0 0.0 0.00 0.00 0.00 55 1008.1
20260504204528 82 334 0.0 0.0 0.00 0.00 0.00 55 1008.1
20260504204031 81 335 0.0 0.0 0.00 0.00 0.00 55 1008.4
20260504203540 81 333 0.0 0.0 0.00 0.00 0.00 56 1008.4
20260504203054 81 333 0.0 0.0 0.00 0.00 0.00 55 1008.5
20260504202555 81 335 0.0 0.0 0.00 0.00 0.00 55 1008.6
20260504202032 80 335 0.0 0.0 0.00 0.00 0.00 55 1008.7
20260504201541 80 332 0.0 0.0 0.00 0.00 0.00 54 1008.7
20260504201030 81 334 0.0 0.0 0.00 0.00 0.00 55 1008.8
20260504200537 80 334 0.0 0.0 0.00 0.00 0.00 55 1009.1
20260504200048 80 333 0.0 0.0 0.00 0.00 0.00 55 1009.1
20260504195539 80 333 0.0 0.0 0.00 0.00 0.00 54 1009.2
20260504195110 80 333 0.0 0.0 0.00 0.00 0.00 54 1009.4
20260504194538 80 333 0.0 0.0 0.00 0.00 0.00 53 1009.4
20260504194056 81 333 0.0 0.0 0.00 0.00 0.00 53 1009.5
20260504193544 81 336 0.0 0.0 0.00 0.00 0.00 53 1009.5
20260504193032 81 333 0.0 0.0 0.00 0.00 0.00 53 1009.5
20260504192538 81 333 0.0 0.0 0.00 0.00 0.00 53 1009.7
20260504192031 80 334 0.0 0.0 0.00 0.00 0.00 53 1009.6
20260504191549 80 334 0.0 0.0 0.00 0.00 0.00 52 1009.9
20260504191042 80 333 0.0 0.0 0.00 0.00 0.00 52 1010.0
20260504190530 80 335 0.0 0.0 0.00 0.00 0.00 52 1010.2
20260504190044 80 335 0.0 0.0 0.00 0.00 0.00 52 1010.1
20260504185550 80 333 0.0 0.0 0.00 0.00 0.00 52 1010.2
20260504185043 79 334 0.0 0.0 0.00 0.00 0.00 52 1010.2
20260504184541 79 333 0.0 0.0 0.00 0.00 0.00 51 1010.2
20260504184049 78 333 0.0 0.0 0.00 0.00 0.00 52 1010.1
20260504183541 79 334 0.0 0.0 0.00 0.00 0.00 52 1010.3
20260504183048 79 335 0.0 0.0 0.00 0.00 0.00 51 1010.3
20260504182554 79 334 0.0 0.0 0.00 0.00 0.00 52 1010.4
20260504182032 78 333 0.0 0.0 0.00 0.00 0.00 54 1010.5
20260504181542 78 334 0.0 0.0 0.00 0.00 0.00 53 1010.6
20260504181036 78 334 0.0 0.0 0.00 0.00 0.00 53 1010.8
20260504180542 78 336 0.0 0.0 0.00 0.00 0.00 52 1010.8
20260504180042 77 335 0.0 0.0 0.00 0.00 0.00 53 1010.9
20260504175531 77 333 0.0 0.0 0.00 0.00 0.00 53 1010.9
20260504175038 77 333 0.0 0.0 0.00 0.00 0.00 53 1010.9
20260504174546 77 335 0.0 0.0 0.00 0.00 0.00 52 1011.1
20260504174035 77 335 0.0 0.0 0.00 0.00 0.00 52 1011.2
20260504173541 77 335 0.0 0.0 0.00 0.00 0.00 52 1011.2
20260504173031 77 335 0.0 0.0 0.00 0.00 0.00 52 1011.4
20260504172542 76 333 0.0 0.0 0.00 0.00 0.00 53 1011.5
20260504172032 76 334 0.0 0.0 0.00 0.00 0.00 52 1011.5
20260504171541 76 333 0.0 0.0 0.00 0.00 0.00 54 1011.5
20260504171030 76 333 0.0 0.0 0.00 0.00 0.00 52 1011.8
20260504170601 76 334 0.0 0.0 0.00 0.00 0.00 51 1011.9
20260504151042 71 335 0.0 0.0 0.00 0.00 0.00 60 1012.9
20260504150534 71 335 0.0 0.0 0.00 0.00 0.00 60 1013.0
20260504141029 68 335 0.0 0.0 0.00 0.00 0.00 67 1013.1
20260504140601 68 336 0.0 0.0 0.00 0.00 0.00 68 1013.1
20260504130547 65 336 0.0 0.0 0.00 0.00 0.00 70 1013.2
20260504110528 61 336 0.0 0.0 0.00 0.00 0.00 76 1012.9
20260504100542 62 336 0.0 0.0 0.00 0.00 0.00 71 1013.1
20260504081536 65 335 0.0 0.0 0.00 0.00 0.00 62 1013.8
20260504081045 65 336 0.0 0.0 0.00 0.00 0.00 62 1013.8
20260504080558 65 336 0.0 0.0 0.00 0.00 0.00 63 1013.8
20260504050558 67 336 0.0 0.0 0.00 0.00 0.00 57 1015.6
20260504045536 67 336 0.0 0.0 0.00 0.00 0.00 57 1015.7
20260504045047 67 336 0.0 0.0 0.00 0.00 0.00 57 1015.8
20260504044538 67 336 0.0 0.0 0.00 0.00 0.00 57 1015.8
20260504044029 67 336 0.0 0.0 0.00 0.00 0.00 56 1015.8
20260504043542 67 336 0.0 0.0 0.00 0.00 0.00 56 1015.8
20260504043035 67 335 0.0 0.0 0.00 0.00 0.00 56 1015.8
20260504042548 67 336 0.0 0.0 0.00 0.00 0.00 56 1015.8
20260504042035 67 336 0.0 0.0 0.00 0.00 0.00 56 1015.9
20260504041531 67 336 0.0 0.0 0.00 0.00 0.00 56 1015.9
20260504041041 67 336 0.0 0.0 0.00 0.00 0.00 56 1015.9
20260504040539 67 336 0.0 0.0 0.00 0.00 0.00 56 1015.9
20260504040045 68 336 0.0 0.0 0.00 0.00 0.00 55 1015.9
20260504035556 68 336 0.0 0.0 0.00 0.00 0.00 55 1015.9
20260504035046 68 336 0.0 0.0 0.00 0.00 0.00 55 1016.0
20260504034544 68 336 0.0 0.0 0.00 0.00 0.00 55 1015.9
20260504034032 68 335 0.0 0.0 0.00 0.00 0.00 54 1016.0
20260504033546 68 336 0.0 0.0 0.00 0.00 0.00 54 1015.9
20260504033044 69 335 0.0 0.0 0.00 0.00 0.00 54 1015.9
20260504032531 69 335 0.0 0.0 0.00 0.00 0.00 53 1015.8
20260504032040 69 336 0.0 0.0 0.00 0.00 0.00 53 1015.8
20260504031528 69 336 0.0 0.0 0.00 0.00 0.00 52 1015.8
20260504031040 69 336 0.0 0.0 0.00 0.00 0.00 52 1015.8
20260504030532 70 335 0.0 0.0 0.00 0.00 0.00 51 1015.8
20260504030045 70 336 0.0 0.0 0.00 0.00 0.00 51 1015.7
20260504025532 70 335 0.0 0.0 0.00 0.00 0.00 51 1015.6
20260504025044 70 334 0.0 0.0 0.00 0.00 0.00 50 1015.6
20260504024530 70 336 0.0 0.0 0.00 0.00 0.00 50 1015.7
20260504024042 71 334 0.0 0.0 0.00 0.00 0.00 50 1015.6
20260504023529 71 334 0.0 0.0 0.00 0.00 0.00 49 1015.6
20260504023047 71 334 0.0 0.0 0.00 0.00 0.00 49 1015.6
20260504022540 71 335 0.0 0.0 0.00 0.00 0.00 49 1015.6
20260504022049 71 334 0.0 0.0 0.00 0.00 0.00 48 1015.6
20260504021537 71 335 0.0 0.0 0.00 0.00 0.00 48 1015.5
20260504021028 71 336 0.0 0.0 0.00 0.00 0.00 48 1015.4
20260504020546 72 335 0.0 0.0 0.00 0.00 0.00 48 1015.4
20260504020033 72 335 0.0 0.0 0.00 0.00 0.00 47 1015.5
20260504015527 72 334 0.0 0.0 0.00 0.00 0.00 47 1015.5
20260504015101 72 335 0.0 0.0 0.00 0.00 0.00 47 1015.5
20260504014528 73 335 0.0 0.0 0.00 0.00 0.00 46 1015.4
20260504014104 73 334 0.0 0.0 0.00 0.00 0.00 46 1015.4
20260504013534 73 334 0.0 0.0 0.00 0.00 0.00 45 1015.4
20260504013042 74 336 0.0 0.0 0.00 0.00 0.00 45 1015.3
20260504012550 74 335 0.0 0.0 0.00 0.00 0.00 44 1015.3
20260504012040 74 334 0.0 0.0 0.00 0.00 0.00 44 1015.2
20260504011533 75 335 0.0 0.0 0.00 0.00 0.00 43 1015.2